Torna al catalogo

COSMOS 397 DEB

AttivoLEO
NORAD 5015·DEBRIS·🇷🇺 Russia

Lanciato Feb 25, 1971 da Baikonur Cosmodrome

Loading…

Prossimi Passaggi

TLE

Source: Space-Track
1 05015U 71015J   26229.88085898  .00000700  00000-0  22058-3 0  9997
2 05015  65.7051  70.3647 0641560 296.6819  56.9931 13.67536179673228

Traccia COSMOS 397 DEB in tempo reale con AllMySat

Download on the App Store